EN

Hourly Weather Al-Ladikija

Today, 18 January, Monday

Time Temperature Precipitation Wind Pressure Humidity
00:00 +9°C° 0 mm 12 mps 754 mmHg 70%
01:00 +9°C° 0 mm 12 mps 754 mmHg 69%
02:00 +9°C° 0 mm 12 mps 754 mmHg 69%
03:00 +9°C° 0.3 mm 12 mps 754 mmHg 71%
04:00 +9°C° 0.3 mm 12 mps 755 mmHg 73%
05:00 +9°C° 0.3 mm 12 mps 755 mmHg 75%
06:00 +9°C° 0.5 mm 11 mps 755 mmHg 75%
07:00 +9°C° 0.5 mm 11 mps 756 mmHg 76%
08:00 +9°C° 0 mm 11 mps 756 mmHg 76%
09:00 +11°C° 0.4 mm 11 mps 757 mmHg 73%
10:00 +11°C° 0.4 mm 10 mps 758 mmHg 71%
11:00 +12°C° 0.4 mm 10 mps 758 mmHg 68%
12:00 +12°C° 0.3 mm 10 mps 758 mmHg 67%
13:00 +12°C° 0.3 mm 10 mps 758 mmHg 67%
14:00 +12°C° 0.3 mm 10 mps 757 mmHg 66%
15:00 +11°C° 0.5 mm 10 mps 758 mmHg 70%
16:00 +11°C° 0.5 mm 10 mps 758 mmHg 74%
17:00 +10°C° 0.5 mm 9 mps 759 mmHg 78%
18:00 +10°C° 0.5 mm 9 mps 759 mmHg 79%
19:00 +10°C° 0.5 mm 8 mps 758 mmHg 80%
20:00 +10°C° 0.5 mm 7 mps 758 mmHg 82%
21:00 +10°C° 0.8 mm 6 mps 758 mmHg 85%
22:00 +10°C° 0.8 mm 5 mps 758 mmHg 88%
23:00 +11°C° 0.8 mm 4 mps 758 mmHg 91%

Tomorrow, 19 January, Tuesday

Time Temperature Precipitation Wind Pressure Humidity
00:00 +9°C° 8.1 mm 5 mps 758 mmHg 92%
01:00 +8°C° 8.1 mm 5 mps 757 mmHg 93%
02:00 +8°C° 8.1 mm 6 mps 756 mmHg 93%
03:00 +7°C° 3.8 mm 5 mps 756 mmHg 94%
04:00 +7°C° 3.8 mm 4 mps 756 mmHg 94%
05:00 +8°C° 3.8 mm 3 mps 756 mmHg 94%
06:00 +9°C° 0.1 mm 3 mps 756 mmHg 93%
07:00 +9°C° 0.1 mm 3 mps 757 mmHg 91%
08:00 +10°C° 0.1 mm 3 mps 757 mmHg 90%
09:00 +10°C° 0 mm 3 mps 757 mmHg 86%
10:00 +11°C° 0 mm 3 mps 758 mmHg 81%
11:00 +12°C° 0 mm 4 mps 758 mmHg 77%
12:00 +12°C° 0.1 mm 4 mps 758 mmHg 77%
13:00 +12°C° 0.1 mm 4 mps 757 mmHg 76%
14:00 +12°C° 0.1 mm 4 mps 757 mmHg 76%
15:00 +11°C° 0.1 mm 3 mps 757 mmHg 79%
16:00 +10°C° 0.1 mm 3 mps 757 mmHg 83%
17:00 +9°C° 0.1 mm 2 mps 758 mmHg 86%
18:00 +9°C° 0 mm 2 mps 758 mmHg 86%
19:00 +9°C° 0 mm 2 mps 758 mmHg 85%
20:00 +8°C° 0 mm 2 mps 758 mmHg 84%
21:00 +8°C° 0.1 mm 2 mps 758 mmHg 83%
22:00 +9°C° 0.1 mm 1 mps 758 mmHg 82%
23:00 +9°C° 0.1 mm 1 mps 758 mmHg 81%

Day after tomorrow, 20 January, Wednesday

Time Temperature Precipitation Wind Pressure Humidity
00:00 +9°C° 0.4 mm 1 mps 758 mmHg 83%
01:00 +8°C° 0.4 mm 2 mps 757 mmHg 85%
02:00 +8°C° 0.4 mm 2 mps 757 mmHg 86%
03:00 +8°C° 0.7 mm 3 mps 757 mmHg 87%
04:00 +8°C° 0.7 mm 3 mps 757 mmHg 88%
05:00 +7°C° 0.7 mm 3 mps 757 mmHg 89%
06:00 +6°C° 1.1 mm 4 mps 758 mmHg 90%
07:00 +6°C° 1.1 mm 4 mps 758 mmHg 90%
08:00 +6°C° 1.1 mm 4 mps 758 mmHg 91%
09:00 +7°C° 0.4 mm 5 mps 759 mmHg 87%
10:00 +7°C° 0.4 mm 5 mps 759 mmHg 83%
11:00 +8°C° 0.4 mm 5 mps 760 mmHg 79%
12:00 +8°C° 0.1 mm 6 mps 760 mmHg 73%
13:00 +9°C° 0.1 mm 6 mps 760 mmHg 68%
14:00 +9°C° 0.1 mm 7 mps 760 mmHg 62%
15:00 +8°C° 0 mm 6 mps 761 mmHg 61%
16:00 +7°C° 0 mm 6 mps 762 mmHg 61%
17:00 +5°C° 0 mm 6 mps 763 mmHg 60%
18:00 +5°C° 0 mm 6 mps 763 mmHg 59%
19:00 +5°C° 0 mm 5 mps 764 mmHg 58%
20:00 +5°C° 0 mm 5 mps 765 mmHg 58%
21:00 +5°C° 0 mm 4 mps 765 mmHg 57%
22:00 +4°C° 0 mm 4 mps 766 mmHg 56%
23:00 +4°C° 0 mm 3 mps 766 mmHg 54%

21 January, Thursday

Time Temperature Precipitation Wind Pressure Humidity
00:00 +4°C° 0 mm 3 mps 767 mmHg 55%
01:00 +5°C° 0 mm 2 mps 767 mmHg 55%
02:00 +5°C° 0 mm 2 mps 767 mmHg 56%
03:00 +5°C° 0 mm 2 mps 767 mmHg 58%
04:00 +5°C° 0 mm 2 mps 767 mmHg 60%
05:00 +5°C° 0 mm 2 mps 767 mmHg 61%
06:00 +6°C° 0 mm 2 mps 768 mmHg 63%
07:00 +7°C° 0 mm 2 mps 768 mmHg 65%
08:00 +8°C° 0 mm 2 mps 769 mmHg 67%
09:00 +9°C° 0 mm 2 mps 769 mmHg 62%
10:00 +10°C° 0 mm 2 mps 769 mmHg 58%
11:00 +12°C° 0 mm 2 mps 769 mmHg 53%
12:00 +13°C° 0 mm 2 mps 768 mmHg 53%
13:00 +13°C° 0 mm 2 mps 768 mmHg 54%
14:00 +13°C° 0 mm 2 mps 768 mmHg 54%
15:00 +12°C° 0 mm 1 mps 768 mmHg 59%
16:00 +10°C° 0 mm 1 mps 768 mmHg 65%
17:00 +9°C° 0 mm 1 mps 769 mmHg 70%
18:00 +9°C° 0 mm 1 mps 769 mmHg 70%
19:00 +9°C° 0 mm 1 mps 769 mmHg 70%
20:00 +7°C° 0 mm 2 mps 769 mmHg 70%
21:00 +7°C° 0 mm 2 mps 769 mmHg 69%
22:00 +7°C° 0 mm 2 mps 769 mmHg 67%
23:00 +7°C° 0 mm 2 mps 769 mmHg 65%

22 January, Friday

Time Temperature Precipitation Wind Pressure Humidity
00:00 +7°C° 0 mm 2 mps 769 mmHg 66%
01:00 +7°C° 0 mm 3 mps 769 mmHg 67%
02:00 +5°C° 0 mm 3 mps 769 mmHg 69%
03:00 +5°C° 0 mm 3 mps 769 mmHg 71%
04:00 +5°C° 0 mm 3 mps 769 mmHg 73%
05:00 +5°C° 0 mm 3 mps 768 mmHg 75%
06:00 +5°C° 0 mm 3 mps 769 mmHg 73%
07:00 +6°C° 0 mm 4 mps 769 mmHg 71%
08:00 +6°C° 0 mm 4 mps 769 mmHg 70%
09:00 +7°C° 0 mm 4 mps 769 mmHg 66%
10:00 +10°C° 0 mm 4 mps 769 mmHg 62%
11:00 +11°C° 0 mm 3 mps 768 mmHg 58%
12:00 +12°C° 0 mm 4 mps 768 mmHg 57%
13:00 +12°C° 0 mm 4 mps 767 mmHg 57%
14:00 +12°C° 0 mm 4 mps 767 mmHg 56%
15:00 +11°C° 0 mm 4 mps 767 mmHg 59%
16:00 +10°C° 0 mm 4 mps 766 mmHg 62%
17:00 +8°C° 0 mm 4 mps 766 mmHg 65%
18:00 +8°C° 0 mm 5 mps 766 mmHg 64%
19:00 +7°C° 0 mm 5 mps 767 mmHg 64%
20:00 +7°C° 0 mm 5 mps 767 mmHg 64%
21:00 +7°C° 0 mm 5 mps 767 mmHg 63%
22:00 +6°C° 0 mm 5 mps 766 mmHg 62%
23:00 +6°C° 0 mm 5 mps 766 mmHg 61%

23 January, Saturday

Time Temperature Precipitation Wind Pressure Humidity
00:00 +6°C° 0 mm 5 mps 766 mmHg 61%
01:00 +6°C° 0 mm 5 mps 766 mmHg 61%
02:00 +6°C° 0 mm 5 mps 766 mmHg 61%
03:00 +5°C° 0 mm 5 mps 765 mmHg 61%
04:00 +5°C° 0 mm 5 mps 765 mmHg 62%
05:00 +5°C° 0 mm 5 mps 765 mmHg 62%
06:00 +5°C° 0 mm 5 mps 765 mmHg 62%
07:00 +6°C° 0 mm 5 mps 765 mmHg 62%
08:00 +6°C° 0 mm 5 mps 766 mmHg 63%
09:00 +7°C° 0 mm 4 mps 765 mmHg 60%
10:00 +8°C° 0 mm 4 mps 765 mmHg 58%
11:00 +11°C° 0 mm 4 mps 765 mmHg 56%
12:00 +11°C° 0 mm 3 mps 764 mmHg 55%
13:00 +12°C° 0 mm 3 mps 764 mmHg 53%
14:00 +13°C° 0 mm 3 mps 763 mmHg 52%
15:00 +12°C° 0 mm 3 mps 763 mmHg 55%
16:00 +10°C° 0 mm 4 mps 763 mmHg 58%
17:00 +8°C° 0 mm 4 mps 763 mmHg 61%
18:00 +8°C° 0 mm 4 mps 763 mmHg 61%
19:00 +8°C° 0 mm 4 mps 764 mmHg 61%
20:00 +7°C° 0 mm 5 mps 764 mmHg 62%
21:00 +7°C° 0 mm 5 mps 764 mmHg 62%
22:00 +7°C° 0 mm 5 mps 764 mmHg 63%
23:00 +6°C° 0 mm 5 mps 764 mmHg 63%
Show more